Regional Weather Roundup
Issued by NWS Albany, NY

Home | Current Version | Previous Version | Graphics & Text | Print | Product List | Glossary On
Versions: 1 2 3 4 5 6 7 8 9 10 11 12 13 14 15 16 17 18 19 20 21 22 23 24 25 26 27 28 29 30 31 32 33 34 35 36 37 38 39 40 41 42 43 44 45 46 47 48 49 50
000
ASUS41 KALY 220110
RWRALY

NEW YORK STATE HOURLY WEATHER ROUNDUP
NATIONAL WEATHER SERVICE ALBANY NY
900 PM EDT THU SEP 21 2017

NOTE: "FAIR" INDICATES FEW OR NO CLOUDS BELOW 12,000 FEET WITH NO
SIGNIFICANT WEATHER AND/OR NO OBSTRUCTIONS TO VISIBILITY.

NYZ032-033-038>043-046>054-057>066-NYZ062>081-082-084-220200-
EAST


CITY           SKY/WX    TMP DP  RH WIND       PRES   REMARKS
ALBANY         MOCLDY    70  58  65 N8        30.08R
GLENS FALLS    MOCLDY    63  56  78 CALM      30.09R
POUGHKEEPSIE   CLOUDY    67  63  87 CALM      30.02S
NEWBURGH       CLEAR     70  64  83 NE5       30.05S
MONTGOMERY     PTCLDY    64  62  93 CALM      30.04S
WHITE PLAINS   CLOUDY    72  63  73 N7        30.03R
ISLIP          CLOUDY    72  55  55 N13       30.00R
NEW YORK CITY  CLOUDY    75  64  68 N10       30.01R
CENTRAL PARK   CLOUDY    76  63  64 VRB7      30.05R
$$

NYZ005>009-017-018-044>046-055-056-220200-
CENTRAL


CITY           SKY/WX    TMP DP  RH WIND       PRES   REMARKS
FULTON         CLOUDY    67  61  81 N8        30.11R
SYRACUSE       PTCLDY    68  62  81 NW6       30.08S
ROME           CLOUDY    71  62  73 VRB6      30.09S
ELMIRA         CLOUDY    70  64  81 NE6       30.11R
BINGHAMTON     CLOUDY    68  61  78 N9        30.12S
MONTICELLO     CLEAR     63  55  75 N5        30.10S
$$

NYZ026>034-041>043-087-220200-
NORTH


CITY           SKY/WX    TMP DP  RH WIND       PRES   REMARKS
WATERTOWN      CLEAR     63  58  83 NE7       30.12R
FORT DRUM      NOT AVBL
OGDENSBURG     FAIR      58  55  91 E5        30.14S
MASSENA        CLEAR     59  54  83 CALM      30.15S
SARANAC LAKE   CLOUDY    50  49  96 CALM      30.17S
PLATTSBURGH    CLOUDY    64  51  62 NW7       30.13S
$$

NYZ001>004-010>016-019>021-085-220200-
WEST


CITY           SKY/WX    TMP DP  RH WIND       PRES   REMARKS
NIAGARA FALLS  CLEAR     71  61  70 E5        30.12R
BUFFALO        PTCLDY    71  63  75 NE8       30.12R
DUNKIRK        CLEAR     63  62  97 S5        30.11R
JAMESTOWN      CLEAR     69  61  75 N3        30.17R
WELLSVILLE     CLOUDY    69  59  70 N5        30.19R
ROCHESTER      CLOUDY    67  61  81 CALM      30.13R
PENN YAN       CLOUDY    64  58  80 CALM      30.14S
$$

             KEY
       WCI = WIND CHILL INDEX
       VSB = VISIBILITY
       HX  = HEAT INDEX
$$



USA.gov is the U.S. government's official web portal to all federal, state and local government web resources and services.